TimeCDT,TemperatureF,Dew PointF,Humidity,Sea Level PressureIn,VisibilityMPH,Wind Direction,Wind SpeedMPH,Gust SpeedMPH,PrecipitationIn,Events,Conditions,WindDirDegrees,DateUTC
12:53 AM,75.0,72.0,90,29.99,10.0,Calm,Calm,-,N/A,,Clear,0,2013-06-13 05:53:00
1:53 AM,73.9,71.1,91,29.99,9.0,Calm,Calm,-,N/A,,Clear,0,2013-06-13 06:53:00
2:53 AM,73.0,71.1,93,29.98,9.0,Calm,Calm,-,N/A,,Clear,0,2013-06-13 07:53:00
3:53 AM,73.0,70.0,90,29.97,8.0,Calm,Calm,-,N/A,,Clear,0,2013-06-13 08:53:00
4:53 AM,72.0,70.0,93,29.98,8.0,Calm,Calm,-,N/A,,Clear,0,2013-06-13 09:53:00
5:53 AM,73.0,70.0,90,29.98,6.0,Calm,Calm,-,N/A,,Clear,0,2013-06-13 10:53:00
6:53 AM,73.9,72.0,93,29.99,6.0,Calm,Calm,-,N/A,,Clear,0,2013-06-13 11:53:00
7:53 AM,80.1,72.0,76,30.00,9.0,Variable,3.5,-,N/A,,Clear,0,2013-06-13 12:53:00
8:53 AM,82.0,72.0,71,30.00,10.0,West,6.9,-,N/A,,Clear,280,2013-06-13 13:53:00
9:53 AM,84.9,72.0,65,29.98,10.0,West,12.7,19.6,N/A,,Clear,270,2013-06-13 14:53:00
10:53 AM,87.1,72.0,61,29.97,10.0,WNW,6.9,-,N/A,,Partly Cloudy,290,2013-06-13 15:53:00
11:53 AM,88.0,71.1,57,29.94,10.0,WSW,10.4,19.6,N/A,,Partly Cloudy,250,2013-06-13 16:53:00
12:53 PM,89.1,70.0,53,29.93,10.0,WNW,9.2,23.0,N/A,,Scattered Clouds,290,2013-06-13 17:53:00
1:53 PM,90.0,72.0,55,29.91,10.0,WNW,9.2,18.4,N/A,,Partly Cloudy,290,2013-06-13 18:53:00
2:53 PM,90.0,72.0,55,29.88,10.0,WNW,8.1,16.1,N/A,,Scattered Clouds,290,2013-06-13 19:53:00
3:53 PM,90.0,73.0,57,29.87,10.0,West,10.4,16.1,N/A,,Mostly Cloudy,260,2013-06-13 20:53:00
4:53 PM,88.0,72.0,59,29.84,10.0,West,4.6,-,N/A,,Partly Cloudy,270,2013-06-13 21:53:00
5:53 PM,87.1,73.9,65,29.81,10.0,SW,4.6,-,0.00,,Partly Cloudy,230,2013-06-13 22:53:00
6:53 PM,86.0,73.9,67,29.82,10.0,West,4.6,-,N/A,,Scattered Clouds,260,2013-06-13 23:53:00
8:03 PM,84.2,73.4,70,29.84,10.0,Calm,Calm,-,N/A,Thunderstorm,Thunderstorm,0,2013-06-14 01:03:00
8:53 PM,80.1,77.0,90,29.85,3.0,NW,9.2,-,0.08,Rain-Thunderstorm,Thunderstorms and Rain,310,2013-06-14 01:53:00
9:40 PM,77.0,73.4,89,29.87,10.0,WNW,4.6,-,0.00,,Partly Cloudy,290,2013-06-14 02:40:00
9:53 PM,77.0,73.9,90,29.88,10.0,WSW,4.6,-,0.00,,Clear,240,2013-06-14 02:53:00
10:53 PM,77.0,73.9,90,29.87,9.0,Calm,Calm,-,N/A,,Clear,0,2013-06-14 03:53:00
11:53 PM,77.0,73.9,90,29.90,8.0,Calm,Calm,-,N/A,,Partly Cloudy,0,2013-06-14 04:53:00